sat.trackr.live / text

‹ back to catalog

STARLINK-31976

NORAD 59887 · 2024-100C

PAYLOAD ACTIVE UNKNOWN

§ Identity

Operator
Country
US
Launch date
2024-05-28
Launch site
AFETR
Launch vehicle
Mass (kg)
RCS (m²)

Purposes: comms

External: N2YO · Heavens-Above · Gunter

§ Orbital elements

Epoch: 2026-09-21T22:20:50.226432Z

Period
94.27 min
Inclination
43.0028°
Eccentricity
0.0000932
Mean motion
15.27574796 rev/d
Perigee alt
482.4 km
Apogee alt
483.7 km
Semi-major
6,861.2 km
B*
5.8832e-6
RAAN
101.0665°
Arg perigee
274.5333°
Mean anomaly
85.5412°
Rev number
13,112

§ Raw data

STARLINK-319761 59887U 24100C   26264.93113688 -.00000100  00000+0  58832-5 0  99952 59887  43.0028 101.0665 0000932 274.5333  85.5412 15.27574796131122

JSON: /api/v1/satellites/59887 · /tle

For live sub-satellite position, see the globe view (requires WebGL).

§ Visibility from observer

Set your observer location to see the next 7 days of passes ≥ 10°. The values pass through the URL so the page stays shareable.

No JS? Fill the form by hand. The geolocation button needs JavaScript.